WAT559 RJGG-RJTT

Flight info

Callsign WAT559
Flight time N/A
Altitude 7000
Route BOGON Y23 ARTIC Y71 XAC
Aircraft C208/L-SDFGR/C

Departure

Time 2026-05-05 20:24
Airport Chubu Centrair International Airport (RJGG)

Arrival

Time N/A
Airport Tokyo Haneda International Airport (RJTT)
Time Latitude Longitude Altitude Speed Heading
2026-05-05 20:14 34.85421 136.81093 23 ft 0 kts 348°
2026-05-05 20:16 34.85487 136.81059 22 ft 24 kts 322°
2026-05-05 20:16 34.85599 136.80871 22 ft 32 kts 306°
2026-05-05 20:16 34.85831 136.80793 22 ft 39 kts 346°
2026-05-05 20:16 34.86009 136.80744 23 ft 27 kts 359°
2026-05-05 20:17 34.86065 136.80735 23 ft 0 kts 350°
2026-05-05 20:17 34.86068 136.80735 23 ft 3 kts 351°
2026-05-05 20:17 34.86133 136.80723 23 ft 15 kts 347°
2026-05-05 20:17 34.86268 136.80684 24 ft 24 kts 347°
2026-05-05 20:18 34.86461 136.80641 25 ft 32 kts 351°
2026-05-05 20:18 34.86647 136.80595 24 ft 14 kts 329°
2026-05-05 20:18 34.86681 136.80506 25 ft 6 kts 251°
2026-05-05 20:18 34.86671 136.80481 23 ft 0 kts 232°
2026-05-05 20:21 34.86638 136.80457 23 ft 11 kts 202°
2026-05-05 20:22 34.86536 136.80408 23 ft 12 kts 213°
2026-05-05 20:22 34.86490 136.80380 23 ft 0 kts 165°
2026-05-05 20:22 34.86490 136.80381 23 ft 1 kts 165°
2026-05-05 20:22 34.86441 136.80394 23 ft 22 kts 168°
2026-05-05 20:23 34.86155 136.80462 23 ft 60 kts 169°
2026-05-05 20:23 34.85645 136.80572 39 ft 84 kts 170°
2026-05-05 20:23 34.85078 136.80660 203 ft 79 kts 169°
2026-05-05 20:23 34.84465 136.80670 229 ft 101 kts 185°
2026-05-05 20:24 34.83752 136.80700 382 ft 108 kts 168°
2026-05-05 20:24 34.82997 136.80672 579 ft 115 kts 194°
2026-05-05 20:24 34.82294 136.80166 789 ft 122 kts 223°
2026-05-05 20:24 34.81819 136.79289 1005 ft 127 kts 249°
2026-05-05 20:25 34.81681 136.78235 1213 ft 125 kts 274°
2026-05-05 20:25 34.81909 136.77227 1422 ft 124 kts 301°
2026-05-05 20:25 34.82460 136.76416 1633 ft 125 kts 326°
2026-05-05 20:25 34.83224 136.75959 1845 ft 125 kts 350°
2026-05-05 20:26 34.84081 136.75916 2059 ft 123 kts 15°
2026-05-05 20:26 34.84867 136.76307 2272 ft 122 kts 40°
2026-05-05 20:26 34.85434 136.77040 2477 ft 115 kts 64°
2026-05-05 20:26 34.85669 136.77902 2658 ft 101 kts 90°
2026-05-05 20:27 34.85564 136.78686 2819 ft 88 kts 119°
2026-05-05 20:27 34.85194 136.79223 2937 ft 81 kts 149°
2026-05-05 20:27 34.84675 136.79410 2992 ft 80 kts 180°
2026-05-05 20:27 34.84105 136.79239 2941 ft 94 kts 200°
2026-05-05 20:28 34.83570 136.78757 2977 ft 99 kts 215°
2026-05-05 20:28 34.83075 136.78145 2981 ft 104 kts 229°
2026-05-05 20:28 34.82492 136.77625 2831 ft 118 kts 183°
2026-05-05 20:28 34.81646 136.77604 2749 ft 125 kts 174°
2026-05-05 20:29 34.80816 136.77931 2677 ft 129 kts 155°
2026-05-05 20:29 34.79973 136.78422 2592 ft 139 kts 156°
2026-05-05 20:29 34.79099 136.78861 2598 ft 135 kts 158°
2026-05-05 20:29 34.78243 136.79213 2664 ft 126 kts 163°
2026-05-05 20:30 34.77400 136.79521 2614 ft 128 kts 161°
2026-05-05 20:30 34.76616 136.79948 2686 ft 121 kts 136°
2026-05-05 20:30 34.76343 136.80881 2761 ft 118 kts 98°
2026-05-05 20:30 34.76251 136.81862 2836 ft 115 kts 100°
2026-05-05 20:31 34.76171 136.82720 2782 ft 94 kts 99°
2026-05-05 20:31 34.76104 136.83535 2689 ft 98 kts 99°
2026-05-05 20:31 34.76033 136.84364 2766 ft 98 kts 100°
2026-05-05 20:31 34.75723 136.85020 2836 ft 94 kts 163°
2026-05-05 20:32 34.75169 136.84705 2934 ft 98 kts 236°
2026-05-05 20:32 34.74799 136.84005 3024 ft 98 kts 232°
2026-05-05 20:32 34.74420 136.83309 3108 ft 100 kts 233°
2026-05-05 20:32 34.74165 136.82837 3169 ft 102 kts 234°
2026-05-05 20:33 34.73771 136.82105 3264 ft 104 kts 232°
2026-05-05 20:33 34.73241 136.81502 3357 ft 105 kts 209°
2026-05-05 20:33 34.72563 136.81377 3419 ft 103 kts 153°
2026-05-05 20:33 34.72116 136.82052 3514 ft 105 kts 121°
2026-05-05 20:34 34.71746 136.82816 3603 ft 106 kts 123°
2026-05-05 20:34 34.71372 136.83607 3691 ft 109 kts 122°
2026-05-05 20:34 34.70994 136.84421 3782 ft 111 kts 122°
2026-05-05 20:34 34.70619 136.85242 3865 ft 112 kts 122°
2026-05-05 20:35 34.70243 136.86064 3942 ft 113 kts 122°
2026-05-05 20:35 34.69857 136.86904 4024 ft 114 kts 122°
2026-05-05 20:35 34.69467 136.87752 4103 ft 115 kts 122°
2026-05-05 20:35 34.69076 136.88606 4182 ft 115 kts 122°
2026-05-05 20:36 34.68684 136.89464 4258 ft 116 kts 123°
2026-05-05 20:36 34.68293 136.90313 4335 ft 117 kts 122°
2026-05-05 20:36 34.67895 136.91180 4413 ft 117 kts 122°
2026-05-05 20:36 34.67607 136.92114 4482 ft 121 kts 99°
2026-05-05 20:37 34.67517 136.93127 4560 ft 120 kts 103°
2026-05-05 20:37 34.67398 136.94126 4636 ft 121 kts 102°
2026-05-05 20:37 34.67281 136.95137 4713 ft 121 kts 103°
2026-05-05 20:37 34.67164 136.96154 4788 ft 121 kts 102°
2026-05-05 20:38 34.67047 136.97169 4864 ft 121 kts 103°
2026-05-05 20:38 34.66929 136.98185 4939 ft 122 kts 103°
2026-05-05 20:38 34.66812 136.99210 5015 ft 122 kts 102°
2026-05-05 20:38 34.66694 137.00236 5092 ft 123 kts 103°
2026-05-05 20:39 34.66577 137.01249 5166 ft 123 kts 103°
2026-05-05 20:39 34.66455 137.02275 5241 ft 122 kts 103°
2026-05-05 20:39 34.66337 137.03298 5315 ft 122 kts 103°
2026-05-05 20:39 34.66218 137.04322 5390 ft 122 kts 103°
2026-05-05 20:40 34.66099 137.05349 5465 ft 123 kts 103°
2026-05-05 20:40 34.65979 137.06374 5538 ft 123 kts 103°
2026-05-05 20:40 34.65860 137.07402 5615 ft 124 kts 103°
2026-05-05 20:40 34.65740 137.08429 5683 ft 125 kts 103°
2026-05-05 20:41 34.65620 137.09472 5764 ft 125 kts 104°
2026-05-05 20:41 34.65498 137.10509 5838 ft 123 kts 104°
2026-05-05 20:41 34.65377 137.11535 5910 ft 123 kts 104°
2026-05-05 20:41 34.65259 137.12560 5978 ft 122 kts 104°
2026-05-05 20:42 34.65137 137.13592 6055 ft 124 kts 103°
2026-05-05 20:42 34.65017 137.14631 6130 ft 124 kts 104°
2026-05-05 20:42 34.64896 137.15671 6204 ft 124 kts 104°
2026-05-05 20:42 34.64773 137.16713 6281 ft 125 kts 103°
2026-05-05 20:43 34.64653 137.17751 6357 ft 126 kts 104°
2026-05-05 20:43 34.64527 137.18810 6431 ft 126 kts 104°
2026-05-05 20:43 34.64405 137.19867 6506 ft 126 kts 104°
2026-05-05 20:43 34.64280 137.20926 6579 ft 126 kts 104°
2026-05-05 20:44 34.64157 137.21982 6665 ft 125 kts 104°
2026-05-05 20:44 34.64038 137.22998 6758 ft 122 kts 105°
2026-05-05 20:44 34.63920 137.24015 6858 ft 120 kts 104°
2026-05-05 20:44 34.63802 137.25012 6971 ft 118 kts 105°
2026-05-05 20:45 34.63574 137.26965 7201 ft 115 kts 105°
2026-05-05 20:45 34.63460 137.27923 7314 ft 114 kts 105°
2026-05-05 20:45 34.63349 137.28866 7384 ft 117 kts 106°
2026-05-05 20:46 34.63225 137.29872 7393 ft 123 kts 105°
2026-05-05 20:46 34.63100 137.30921 7400 ft 129 kts 105°
2026-05-05 20:46 34.62970 137.32014 7403 ft 132 kts 104°
2026-05-05 20:46 34.62836 137.33140 7402 ft 135 kts 104°
2026-05-05 20:47 34.62704 137.34267 7399 ft 138 kts 104°
2026-05-05 20:47 34.62568 137.35422 7402 ft 139 kts 104°
2026-05-05 20:47 34.62429 137.36588 7400 ft 140 kts 104°
2026-05-05 20:47 34.62163 137.37697 7400 ft 136 kts 121°
2026-05-05 20:48 34.61766 137.38741 7399 ft 136 kts 119°
2026-05-05 20:48 34.61390 137.39788 7402 ft 138 kts 119°
2026-05-05 20:48 34.60994 137.40878 7400 ft 141 kts 119°
2026-05-05 20:48 34.60598 137.41971 7400 ft 141 kts 119°
2026-05-05 20:49 34.60206 137.43059 7400 ft 141 kts 119°
2026-05-05 20:49 34.59815 137.44144 7399 ft 140 kts 119°
2026-05-05 20:49 34.59424 137.45227 7397 ft 140 kts 119°
2026-05-05 20:49 34.59034 137.46303 7395 ft 139 kts 119°
2026-05-05 20:50 34.58643 137.47382 7393 ft 139 kts 119°
2026-05-05 20:50 34.58257 137.48447 7391 ft 139 kts 119°
2026-05-05 20:50 34.57866 137.49521 7390 ft 139 kts 119°
2026-05-05 20:50 34.57476 137.50595 7389 ft 139 kts 119°
2026-05-05 20:51 34.57087 137.51669 7394 ft 138 kts 119°
2026-05-05 20:51 34.56704 137.52728 7392 ft 139 kts 119°
2026-05-05 20:51 34.56315 137.53800 7392 ft 139 kts 120°
2026-05-05 20:51 34.55926 137.54869 7391 ft 139 kts 120°
2026-05-05 20:52 34.55535 137.55947 7390 ft 139 kts 120°
2026-05-05 20:52 34.55147 137.57014 7392 ft 138 kts 120°
2026-05-05 20:52 34.54758 137.58081 7390 ft 138 kts 120°
2026-05-05 20:52 34.54372 137.59147 7391 ft 138 kts 119°
2026-05-05 20:53 34.54214 137.60310 7394 ft 144 kts 93°
2026-05-05 20:53 34.54241 137.61517 7395 ft 143 kts 96°
2026-05-05 20:53 34.54238 137.62713 7396 ft 143 kts 96°
2026-05-05 20:53 34.54241 137.63928 7396 ft 144 kts 96°
2026-05-05 20:54 34.54245 137.65144 7397 ft 144 kts 96°
2026-05-05 20:54 34.54249 137.66359 7396 ft 144 kts 96°
2026-05-05 20:54 34.54253 137.67561 7396 ft 144 kts 96°
2026-05-05 20:54 34.54256 137.68777 7395 ft 144 kts 96°
2026-05-05 20:55 34.54260 137.69992 7394 ft 144 kts 96°
2026-05-05 20:55 34.54264 137.71209 7393 ft 144 kts 96°
2026-05-05 20:55 34.54266 137.72425 7392 ft 144 kts 96°
2026-05-05 20:55 34.54270 137.73645 7391 ft 144 kts 96°
2026-05-05 20:56 34.54272 137.74853 7390 ft 144 kts 96°
2026-05-05 20:56 34.54275 137.76069 7393 ft 144 kts 96°
2026-05-05 20:56 34.54278 137.77289 7391 ft 144 kts 96°
2026-05-05 20:56 34.54281 137.78507 7391 ft 144 kts 96°
2026-05-05 20:57 34.54283 137.79721 7391 ft 144 kts 96°
2026-05-05 20:57 34.54286 137.80923 7391 ft 144 kts 96°
2026-05-05 20:57 34.54287 137.82142 7391 ft 145 kts 96°
2026-05-05 20:57 34.54289 137.83368 7391 ft 145 kts 96°
2026-05-05 20:58 34.54292 137.84591 7393 ft 144 kts 96°
2026-05-05 20:58 34.54293 137.85807 7391 ft 144 kts 96°
2026-05-05 20:58 34.54296 137.87028 7392 ft 144 kts 96°
2026-05-05 20:58 34.54298 137.88222 7401 ft 143 kts 96°
2026-05-05 20:59 34.54298 137.89435 7400 ft 144 kts 96°
2026-05-05 20:59 34.54300 137.90647 7402 ft 144 kts 96°
2026-05-05 20:59 34.54300 137.91862 7401 ft 144 kts 96°
2026-05-05 20:59 34.54302 137.93083 7401 ft 144 kts 96°
2026-05-05 21:00 34.54303 137.94301 7400 ft 144 kts 96°
2026-05-05 21:00 34.54304 137.95521 7399 ft 144 kts 96°
2026-05-05 21:00 34.54305 137.96725 7401 ft 144 kts 96°
2026-05-05 21:00 34.54305 137.97941 7401 ft 144 kts 96°
2026-05-05 21:01 34.54306 137.99158 7400 ft 144 kts 96°
2026-05-05 21:01 34.54307 138.00371 7401 ft 144 kts 96°
2026-05-05 21:01 34.54307 138.01587 7399 ft 144 kts 96°
2026-05-05 21:01 34.54307 138.02801 7402 ft 144 kts 96°
2026-05-05 21:02 34.54307 138.04013 7401 ft 143 kts 96°
2026-05-05 21:02 34.54304 138.05225 7400 ft 144 kts 96°
2026-05-05 21:02 34.54302 138.06439 7402 ft 144 kts 96°
2026-05-05 21:02 34.54301 138.07641 7402 ft 144 kts 96°
2026-05-05 21:03 34.54298 138.08860 7401 ft 144 kts 96°
2026-05-05 21:03 34.54296 138.10078 7400 ft 144 kts 96°
2026-05-05 21:03 34.54293 138.11298 7400 ft 144 kts 96°
2026-05-05 21:03 34.54292 138.12504 7400 ft 144 kts 96°
2026-05-05 21:04 34.54289 138.13722 7401 ft 144 kts 96°
2026-05-05 21:04 34.54286 138.14943 7400 ft 144 kts 96°
2026-05-05 21:04 34.54283 138.16161 7399 ft 145 kts 96°
2026-05-05 21:04 34.54281 138.17381 7400 ft 144 kts 96°
2026-05-05 21:05 34.54278 138.18603 7400 ft 145 kts 96°
2026-05-05 21:05 34.54275 138.19823 7400 ft 145 kts 96°
2026-05-05 21:05 34.54271 138.21031 7400 ft 145 kts 96°
2026-05-05 21:05 34.54267 138.22253 7400 ft 145 kts 96°
2026-05-05 21:06 34.54265 138.23474 7402 ft 145 kts 96°
2026-05-05 21:06 34.54261 138.24692 7401 ft 145 kts 96°
2026-05-05 21:06 34.54257 138.25912 7401 ft 145 kts 96°
2026-05-05 21:06 34.54253 138.27137 7400 ft 145 kts 96°
2026-05-05 21:07 34.54249 138.28359 7401 ft 145 kts 96°
2026-05-05 21:07 34.54245 138.29572 7402 ft 145 kts 96°
2026-05-05 21:07 34.54240 138.30796 7401 ft 145 kts 96°
2026-05-05 21:07 34.54236 138.32020 7401 ft 145 kts 96°
2026-05-05 21:08 34.54231 138.33246 7400 ft 146 kts 96°
2026-05-05 21:08 34.54226 138.34477 7400 ft 145 kts 96°
2026-05-05 21:08 34.54222 138.35701 7402 ft 145 kts 96°
2026-05-05 21:08 34.54217 138.36927 7401 ft 145 kts 96°
2026-05-05 21:09 34.54217 138.38158 7398 ft 146 kts 93°
2026-05-05 21:09 34.54543 138.39332 7401 ft 151 kts 66°
2026-05-05 21:09 34.55034 138.40459 7406 ft 150 kts 69°
2026-05-05 21:09 34.55493 138.41584 7406 ft 151 kts 68°
2026-05-05 21:10 34.55966 138.42725 7403 ft 151 kts 68°
2026-05-05 21:10 34.56439 138.43868 7407 ft 151 kts 68°
2026-05-05 21:10 34.56907 138.44994 7405 ft 151 kts 68°
2026-05-05 21:10 34.57378 138.46132 7403 ft 151 kts 69°
2026-05-05 21:11 34.57849 138.47269 7404 ft 151 kts 68°
2026-05-05 21:11 34.58322 138.48411 7401 ft 151 kts 68°
2026-05-05 21:11 34.58794 138.49549 7402 ft 151 kts 68°
2026-05-05 21:11 34.59265 138.50689 7401 ft 151 kts 68°
2026-05-05 21:12 34.59735 138.51824 7400 ft 150 kts 68°
2026-05-05 21:12 34.60204 138.52957 7402 ft 150 kts 68°
2026-05-05 21:12 34.60670 138.54082 7400 ft 151 kts 68°
2026-05-05 21:12 34.61141 138.55220 7400 ft 151 kts 68°
2026-05-05 21:13 34.61605 138.56347 7402 ft 151 kts 68°
2026-05-05 21:13 34.62081 138.57498 7401 ft 151 kts 68°
2026-05-05 21:13 34.62543 138.58615 7423 ft 148 kts 68°
2026-05-05 21:13 34.63006 138.59737 7433 ft 149 kts 68°
2026-05-05 21:14 34.63471 138.60864 7429 ft 149 kts 68°
2026-05-05 21:14 34.63933 138.61989 7429 ft 149 kts 68°
2026-05-05 21:14 34.64393 138.63102 7428 ft 149 kts 68°
2026-05-05 21:14 34.64858 138.64234 7430 ft 150 kts 68°
2026-05-05 21:15 34.65325 138.65365 7430 ft 150 kts 68°
2026-05-05 21:15 34.65795 138.66503 7430 ft 150 kts 68°
2026-05-05 21:15 34.66262 138.67637 7429 ft 150 kts 68°
2026-05-05 21:15 34.66730 138.68771 7429 ft 150 kts 68°
2026-05-05 21:16 34.67189 138.69892 7430 ft 150 kts 68°
2026-05-05 21:16 34.67658 138.71025 7429 ft 150 kts 68°
2026-05-05 21:16 34.68123 138.72158 7428 ft 150 kts 68°
2026-05-05 21:16 34.68587 138.73286 7430 ft 149 kts 68°
2026-05-05 21:17 34.69052 138.74418 7428 ft 150 kts 68°
2026-05-05 21:17 34.69522 138.75558 7437 ft 151 kts 68°
2026-05-05 21:17 34.69992 138.76708 7433 ft 151 kts 68°
2026-05-05 21:17 34.70454 138.77837 7437 ft 152 kts 68°
2026-05-05 21:18 34.70932 138.78996 7437 ft 153 kts 68°
2026-05-05 21:18 34.71400 138.80157 7437 ft 151 kts 72°
2026-05-05 21:18 34.71532 138.81379 7439 ft 144 kts 98°
2026-05-05 21:18 34.71533 138.82603 7432 ft 145 kts 94°
2026-05-05 21:19 34.71523 138.83830 7435 ft 145 kts 97°
2026-05-05 21:19 34.71509 138.85059 7435 ft 145 kts 95°
2026-05-05 21:19 34.71512 138.86286 7435 ft 144 kts 96°
2026-05-05 21:19 34.71510 138.87486 7436 ft 144 kts 95°
2026-05-05 21:20 34.71508 138.88709 7434 ft 145 kts 96°
2026-05-05 21:20 34.71500 138.89939 7435 ft 146 kts 96°
2026-05-05 21:20 34.71497 138.91181 7435 ft 147 kts 95°
2026-05-05 21:20 34.71492 138.92416 7434 ft 145 kts 95°
2026-05-05 21:21 34.71487 138.93644 7436 ft 145 kts 96°
2026-05-05 21:21 34.71482 138.94872 7434 ft 145 kts 96°
2026-05-05 21:21 34.71477 138.96100 7431 ft 144 kts 95°
2026-05-05 21:21 34.71472 138.97335 7430 ft 146 kts 96°
2026-05-05 21:22 34.71467 138.98557 7434 ft 148 kts 95°
2026-05-05 21:22 34.71460 138.99809 7433 ft 147 kts 96°
2026-05-05 21:22 34.71456 139.00635 7433 ft 147 kts 96°
2026-05-05 21:22 34.71451 139.01874 7431 ft 146 kts 96°
2026-05-05 21:23 34.71446 139.03115 7430 ft 146 kts 95°
2026-05-05 21:23 34.71441 139.04351 7428 ft 146 kts 96°
2026-05-05 21:23 34.71433 139.05591 7428 ft 146 kts 96°
2026-05-05 21:23 34.71427 139.06824 7432 ft 146 kts 96°
2026-05-05 21:24 34.71420 139.08058 7429 ft 145 kts 96°
2026-05-05 21:24 34.71416 139.09284 7428 ft 145 kts 95°
2026-05-05 21:24 34.71409 139.10513 7430 ft 145 kts 96°
2026-05-05 21:24 34.71402 139.11734 7429 ft 144 kts 96°
2026-05-05 21:25 34.71394 139.12964 7429 ft 145 kts 96°
2026-05-05 21:25 34.71386 139.14190 7428 ft 145 kts 96°
2026-05-05 21:25 34.71380 139.15404 7428 ft 145 kts 96°
2026-05-05 21:25 34.71373 139.16631 7428 ft 144 kts 96°
2026-05-05 21:26 34.71366 139.17851 7430 ft 145 kts 96°
2026-05-05 21:26 34.71358 139.19079 7429 ft 145 kts 96°
2026-05-05 21:26 34.71351 139.20303 7431 ft 145 kts 96°
2026-05-05 21:26 34.71342 139.21512 7428 ft 145 kts 96°
2026-05-05 21:27 34.71336 139.22737 7428 ft 145 kts 96°
2026-05-05 21:27 34.71328 139.23963 7428 ft 145 kts 96°
2026-05-05 21:27 34.71320 139.25190 7430 ft 145 kts 96°
2026-05-05 21:27 34.71311 139.26412 7431 ft 145 kts 96°
2026-05-05 21:28 34.71303 139.27653 7435 ft 145 kts 96°
2026-05-05 21:28 34.71295 139.28884 7432 ft 145 kts 96°
2026-05-05 21:28 34.71286 139.30113 7433 ft 146 kts 96°
2026-05-05 21:28 34.71277 139.31348 7431 ft 146 kts 96°
2026-05-05 21:29 34.71268 139.32566 7432 ft 145 kts 96°
2026-05-05 21:29 34.71259 139.33798 7430 ft 145 kts 96°
2026-05-05 21:29 34.71251 139.35027 7448 ft 144 kts 96°
2026-05-05 21:29 34.71242 139.36248 7448 ft 145 kts 96°
2026-05-05 21:30 34.71233 139.37470 7445 ft 146 kts 96°
2026-05-05 21:30 34.71223 139.38710 7446 ft 147 kts 96°
2026-05-05 21:30 34.71212 139.39960 7448 ft 148 kts 96°
2026-05-05 21:30 34.71229 139.41217 7444 ft 150 kts 86°
2026-05-05 21:31 34.71670 139.42385 7433 ft 154 kts 61°
2026-05-05 21:31 34.72231 139.43495 7433 ft 153 kts 64°
2026-05-05 21:31 34.72768 139.44604 7433 ft 153 kts 64°
2026-05-05 21:31 34.73311 139.45718 7433 ft 152 kts 64°
2026-05-05 21:32 34.73845 139.46810 7433 ft 151 kts 64°